This demonstration page uses our WeatherBlox Daily Observations layout. Learn more.

Left ArrowRight Arrow

Hourly Observations for February 13, 2016

Temp ( °F °C ) Dew Point ( °F °C ) Humidity (%) Winds ( mph kmh ) Pressure ( in mb ) Visibility ( mi km ) Precip ( " mm )
12:15 am 00:15 Cloudy 19 -7 14 -10 79 79 ESE 10 17 30.65 1038 10 16 0.00 0.00
12:35 am 00:35 Cloudy 19 -7 12 -11 73 73 E 10 17 30.65 1038 10 16 0.00 0.00
12:55 am 00:55 Cloudy 19 -7 12 -11 73 73 ESE 10 17 30.65 1038 10 16 0.00 0.00
1:15 am 01:15 Cloudy 19 -7 12 -11 73 73 ESE 12 19 30.62 1037 10 16 0.00 0.00
1:35 am 01:35 Cloudy 19 -7 14 -10 79 79 ESE 10 17 30.62 1037 10 16 0.00 0.00
1:55 am 01:55 Cloudy 19 -7 14 -10 79 79 ESE 12 19 30.62 1037 10 16 0.00 0.00
2:15 am 02:15 Cloudy 18 -8 12 -11 79 79 SE 8 13 30.65 1038 10 16 0.00 0.00
2:35 am 02:35 Cloudy 19 -7 12 -11 73 73 SE 9 15 30.62 1037 10 16 0.00 0.00
2:55 am 02:55 Cloudy 18 -8 12 -11 79 79 SE 12 19 30.65 1038 10 16 0.00 0.00
3:15 am 03:15 Cloudy 18 -8 12 -11 79 79 SE 12 19 30.65 1038 10 16 0.00 0.00
3:35 am 03:35 Cloudy 18 -8 12 -11 79 79 SE 12 19 30.65 1038 10 16 0.00 0.00
3:55 am 03:55 Cloudy 18 -8 10 -12 73 73 SE 12 19 30.62 1037 10 16 0.00 0.00
4:15 am 04:15 Cloudy 18 -8 12 -11 79 79 SE 13 20 30.62 1037 10 16 0.00 0.00
4:35 am 04:35 Cloudy 18 -8 12 -11 79 79 ESE 13 20 30.62 1037 10 16 0.00 0.00
4:55 am 04:55 Cloudy 18 -8 12 -11 79 79 SE 13 20 30.62 1037 10 16 0.00 0.00
5:15 am 05:15 Cloudy 18 -8 12 -11 79 79 ESE 13 20 30.62 1037 10 16 0.00 0.00
5:35 am 05:35 Cloudy 18 -8 12 -11 79 79 SE 13 20 30.56 1035 10 16 0.00 0.00
5:55 am 05:55 Cloudy 18 -8 12 -11 79 79 ESE 14 22 30.56 1035 10 16 0.00 0.00
6:15 am 06:15 Cloudy 18 -8 12 -11 79 79 ESE 14 22 30.56 1035 10 16 0.00 0.00
6:35 am 06:35 Cloudy 16 -9 10 -12 79 79 SE 12 19 30.59 1036 10 16 0.00 0.00
6:55 am 06:55 Cloudy 16 -9 10 -12 79 79 SE 14 22 30.59 1036 10 16 0.00 0.00
7:15 am 07:15 Cloudy 16 -9 9 -13 73 73 SE 15 24 30.59 1036 10 16 0.00 0.00
7:35 am 07:35 Cloudy 16 -9 9 -13 73 73 SE 15 24 30.56 1035 10 16 0.00 0.00
7:55 am 07:55 Cloudy 16 -9 9 -13 73 73 SE 12 19 30.56 1035 10 16 0.00 0.00
8:15 am 08:15 Cloudy 16 -9 9 -13 73 73 SE 13 20 30.56 1035 10 16 0.00 0.00
8:35 am 08:35 Cloudy 18 -8 10 -12 73 73 SSE 16 26 30.53 1034 10 16 0.00 0.00
8:55 am 08:55 Cloudy 18 -8 10 -12 73 73 SE 15 24 30.53 1034 10 16 0.00 0.00
9:15 am 09:15 Cloudy 18 -8 10 -12 73 73 SSE 16 26 30.53 1034 10 16 0.00 0.00
9:35 am 09:35 Cloudy 18 -8 12 -11 79 79 SSE 16 26 30.53 1034 10 16 0.00 0.00
9:55 am 09:55 Cloudy 18 -8 12 -11 79 79 SE 14 22 30.53 1034 10 16 0.00 0.00
10:15 am 10:15 Cloudy 18 -8 12 -11 79 79 SE 14 22 30.50 1033 10 16 0.00 0.00
10:35 am 10:35 Cloudy 19 -7 12 -11 73 73 SE 16 26 30.50 1033 10 16 0.00 0.00
10:55 am 10:55 Cloudy 19 -7 12 -11 73 73 SSE 16 26 30.50 1033 10 16 0.00 0.00
11:15 am 11:15 Cloudy 19 -7 14 -10 79 79 SSE 15 24 30.48 1032 10 16 0.00 0.00
11:35 am 11:35 Cloudy 19 -7 12 -11 73 73 S 17 28 30.48 1032 10 16 0.00 0.00
11:55 am 11:55 Cloudy 21 -6 12 -11 68 68 SSE 16 26 30.48 1032 10 16 0.00 0.00
12:15 pm 12:15 Cloudy 21 -6 10 -12 63 63 SSE 16 26 30.42 1030 10 16 0.00 0.00
12:35 pm 12:35 Cloudy 21 -6 10 -12 63 63 SSE 16 26 30.42 1030 10 16 0.00 0.00
12:55 pm 12:55 Cloudy 21 -6 10 -12 63 63 SE 16 26 30.42 1030 10 16 0.00 0.00
1:15 pm 13:15 Cloudy 21 -6 10 -12 63 63 SSE 16 26 30.42 1030 10 16 0.00 0.00
1:35 pm 13:35 Cloudy 21 -6 10 -12 63 63 SSE 16 26 30.39 1029 10 16 0.00 0.00
1:55 pm 13:55 Cloudy 21 -6 9 -13 58 58 SSE 14 22 30.36 1028 10 16 0.00 0.00
2:15 pm 14:15 Cloudy 21 -6 9 -13 58 58 SSE 16 26 30.36 1028 10 16 0.00 0.00
2:35 pm 14:35 Cloudy 21 -6 10 -12 63 63 SSE 16 26 30.33 1027 10 16 0.00 0.00
2:55 pm 14:55 Cloudy 21 -6 9 -13 58 58 SSE 13 20 30.33 1027 10 16 0.00 0.00
3:15 pm 15:15 Cloudy 21 -6 10 -12 63 63 SSE 14 22 30.33 1027 10 16 0.00 0.00
3:35 pm 15:35 Cloudy 21 -6 10 -12 63 63 SSE 17 28 30.30 1026 10 16 0.00 0.00
3:55 pm 15:55 Cloudy 21 -6 10 -12 63 63 SSE 15 24 30.30 1026 10 16 0.00 0.00
4:15 pm 16:15 Cloudy 21 -6 10 -12 63 63 SSE 14 22 30.30 1026 10 16 0.00 0.00
4:35 pm 16:35 Cloudy 21 -6 9 -13 58 58 SSE 15 24 30.27 1025 10 16 0.00 0.00
4:55 pm 16:55 Cloudy 21 -6 9 -13 58 58 SSE 16 26 30.27 1025 10 16 0.00 0.00
5:15 pm 17:15 Cloudy 21 -6 9 -13 58 58 SE 16 26 30.27 1025 10 16 0.00 0.00
5:35 pm 17:35 Cloudy 21 -6 9 -13 58 58 SE 16 26 30.24 1024 10 16 0.00 0.00
5:55 pm 17:55 Cloudy 21 -6 10 -12 63 63 SSE 16 26 30.24 1024 10 16 0.00 0.00
6:15 pm 18:15 Cloudy 21 -6 10 -12 63 63 SSE 14 22 30.24 1024 10 16 0.00 0.00
6:35 pm 18:35 Cloudy 21 -6 9 -13 58 58 SE 16 26 30.21 1023 10 16 0.00 0.00
6:55 pm 18:55 Cloudy 21 -6 10 -12 63 63 SE 13 20 30.24 1024 10 16 0.00 0.00
7:15 pm 19:15 Mostly Cloudy 21 -6 10 -12 63 63 SE 13 20 30.21 1023 10 16 0.00 0.00
7:35 pm 19:35 Partly Cloudy 21 -6 10 -12 63 63 SE 15 24 30.21 1023 10 16 0.00 0.00
7:55 pm 19:55 Mostly Clear 19 -7 10 -12 68 68 SE 14 22 30.18 1022 10 16 0.00 0.00
8:15 pm 20:15 Clear 19 -7 10 -12 68 68 SE 14 22 30.18 1022 10 16 0.00 0.00
8:35 pm 20:35 Clear 19 -7 10 -12 68 68 SE 15 24 30.18 1022 10 16 0.00 0.00
8:55 pm 20:55 Clear 19 -7 10 -12 68 68 SE 13 20 30.18 1022 10 16 0.00 0.00
9:15 pm 21:15 Clear 19 -7 10 -12 68 68 SE 13 20 30.15 1021 10 16 0.00 0.00
9:35 pm 21:35 Clear 19 -7 10 -12 68 68 SSE 9 15 30.18 1022 10 16 0.00 0.00
9:55 pm 21:55 Clear 19 -7 10 -12 68 68 SSE 9 15 30.18 1022 10 16 0.00 0.00
10:15 pm 22:15 Clear 19 -7 10 -12 68 68 SE 9 15 30.18 1022 10 16 0.00 0.00
10:35 pm 22:35 Clear 18 -8 9 -13 68 68 SSE 9 15 30.18 1022 10 16 0.00 0.00
10:55 pm 22:55 Clear 18 -8 9 -13 68 68 S 9 15 30.18 1022 10 16 0.00 0.00
11:15 pm 23:15 Clear 18 -8 9 -13 68 68 S 9 15 30.18 1022 10 16 0.00 0.00
11:35 pm 23:35 Clear 18 -8 10 -12 73 73 SSW 9 15 30.15 1021 10 16 0.00 0.00
11:55 pm 23:55 Partly Cloudy 18 -8 10 -12 73 73 SW 9 15 30.18 1022 10 16 0.00 0.00

Powered by AerisWeather